Location: ??
(35.5052°N, 139.7262°E)
Time: 23:52:22
(UTC+00:00)

NOAA 16 DEB - Visible Passes

Search period start: 10 August 2022 00:00
Search period end: 20 August 2022 00:00
Orbit: 736 x 828 km, 98.9° (Epoch: 10 August)

Date Brightness Start Highest point End Pass type
(mag) Time Alt. Az. Time Alt. Az. Time Alt. Az.
10 Aug ? 17:00:51 12° SE 17:05:09 30° ENE 17:09:46 10° N visible
10 Aug ? 18:41:24 19° SW 18:44:17 30° W 18:48:59 10° NW visible
11 Aug ? 16:30:34 10° E 16:33:37 16° ENE 16:36:39 10° NNE visible
11 Aug ? 18:09:11 25° S 18:12:19 63° WSW 18:17:38 10° NNW visible
12 Aug ? 17:36:59 22° SSE 17:40:27 65° ENE 17:45:45 10° N visible
12 Aug ? 19:17:32 10° WSW 19:20:03 14° W 19:22:40 10° WNW visible
13 Aug ? 17:04:45 14° SE 17:08:44 32° ENE 17:13:25 10° N visible
13 Aug ? 18:45:19 20° SW 18:47:54 28° W 18:52:29 10° NW visible
14 Aug ? 16:33:54 10° ESE 16:37:09 16° ENE 16:40:22 10° NNE visible
14 Aug ? 18:13:06 28° S 18:15:53 59° WSW 18:21:10 10° NNW visible
15 Aug ? 17:40:52 25° SSE 17:44:00 69° ENE 17:49:18 10° N visible
15 Aug ? 19:21:26 10° WSW 19:23:38 13° W 19:25:52 10° WNW visible
16 Aug ? 17:08:38 16° SE 17:12:15 34° ENE 17:16:59 10° N visible
16 Aug ? 18:49:11 20° SW 18:51:27 27° W 18:55:54 10° NW visible
17 Aug ? 16:37:13 10° ESE 16:40:38 17° ENE 16:44:00 10° NNE visible
17 Aug ? 18:16:57 30° SSW 18:19:25 55° W 18:24:37 10° NNW visible
18 Aug ? 17:44:43 29° SSE 17:47:30 74° ENE 17:52:47 10° N visible
18 Aug ? 19:25:25 10° WSW 19:27:10 11° W 19:28:54 10° WNW visible
19 Aug ? 17:12:29 19° SE 17:15:42 36° ENE 17:20:29 10° N visible
19 Aug ? 18:53:02 20° SW 18:54:57 25° W 18:59:15 10° NW visible
